This is the latest recevied weather packets stored in our database for station/object KD4WXI. If no packets are shown the sender has not sent any weather packets the latest 10 day(s).
| Time | Temp. | Humidity | Pressure | Rain* | Wind** | Luminosity | Snow |
|---|---|---|---|---|---|---|---|
| 1777919849 | 25.56° C | 37% | 1015.7 hPa | 0 mm | - | 716 W/m² | - |
| 1777919546 | 25.56° C | 37% | 1015.9 hPa | 0 mm | - | 720 W/m² | - |
| 1777919244 | 25.56° C | 34% | 1015.9 hPa | 0 mm | - | 653 W/m² | - |
| 1777918941 | 25.56° C | 37% | 1015.8 hPa | 0 mm | - | 730 W/m² | - |
| 1777918638 | 25° C | 35% | 1015.8 hPa | 0 mm | - | 739 W/m² | - |
| 1777918336 | 25° C | 37% | 1016 hPa | 0 mm | - | 739 W/m² | - |
| 1777918035 | 25.56° C | 37% | 1016 hPa | 0 mm | - | 744 W/m² | - |
| 1777917733 | 25.56° C | 36% | 1015.8 hPa | 0 mm | - | 748 W/m² | - |
| 1777917430 | 25.56° C | 35% | 1015.8 hPa | 0 mm | - | 752 W/m² | - |
| 1777917126 | 25° C | 37% | 1016 hPa | 0 mm | - | 755 W/m² | - |
| 1777916824 | 25° C | 37% | 1015.8 hPa | 0 mm | - | 759 W/m² | - |
| 1777916522 | 24.44° C | 36% | 1016 hPa | 0 mm | - | 763 W/m² | - |
| 1777916218 | 25° C | 33% | 1016.1 hPa | 0 mm | - | 756 W/m² | - |
| 1777915916 | 25° C | 36% | 1016.2 hPa | 0 mm | - | 766 W/m² | - |
| 1777915612 | 24.44° C | 37% | 1016.2 hPa | 0 mm | - | 768 W/m² | - |
| 1777915308 | 25° C | 38% | 1016.1 hPa | 0 mm | - | 760 W/m² | - |
| 1777915005 | 25° C | 35% | 1016.2 hPa | 0 mm | - | 741 W/m² | - |
| 1777914703 | 25° C | 38% | 1016.4 hPa | 0 mm | - | 754 W/m² | - |
| 1777914399 | 24.44° C | 34% | 1016.5 hPa | 0 mm | - | 761 W/m² | - |
| 1777914096 | 24.44° C | 37% | 1016.6 hPa | 0 mm | - | 760 W/m² | - |
| 1777913792 | 25° C | 35% | 1016.7 hPa | 0 mm | - | 758 W/m² | - |
| 1777913488 | 25° C | 35% | 1016.7 hPa | 0 mm | - | 748 W/m² | - |
| 1777913185 | 24.44° C | 35% | 1016.8 hPa | 0 mm | - | 757 W/m² | - |
| 1777912881 | 24.44° C | 35% | 1016.9 hPa | 0 mm | - | 756 W/m² | - |
| 1777912578 | 23.89° C | 34% | 1016.9 hPa | 0 mm | - | 751 W/m² | - |
* Rain latest hour (hover to see other rain measurements)
** Current wind speed in m/s (hover to see current wind gust speed)